www.pogodaiklimat.ru
Время
(UTC), дата
00 16.01
03 16.01
06 16.01
09 16.01
12 16.01
15 16.01
18 16.01
21 16.01
00 17.01
03 17.01
06 17.01
09 17.01
12 17.01
15 17.01
18 17.01
21 17.01
00 18.01
03 18.01
06 18.01
09 18.01
12 18.01
15 18.01
18 18.01
21 18.01
00 19.01
03 19.01
06 19.01
09 19.01
12 19.01
15 19.01
18 19.01
21 19.01
00 20.01
03 20.01
06 20.01
09 20.01
12 20.01
15 20.01
18 20.01
21 20.01
00 21.01
03 21.01
06 21.01
09 21.01
12 21.01
15 21.01
18 21.01
21 21.01
00 22.01
03 22.01
06 22.01
09 22.01
12 22.01
15 22.01
18 22.01
21 22.01
Ветер
(напр.,м/с)
Видим. Явления Облачность Т
(С)
Тd
(С)
f
(%)
Тe
(С)
Тes
(С)
Комфортность P
(гПа)
Po
(гПа)
Тmin
(С)
Tmax
(С)
R
(мм)
R24
(мм)
S
(см)
З 7-10
{14}
50 км позёмок 4/3 1000 м
[Sc Ac trans Ci fib]
-7.2 -17.3 44 -15 -15 994.6 990.9 -7.5
СЗ 5
{12}
50 км позёмок 8/3 1000 м
[Sc Ac trans Ci fib]
-6.8 -17.9 41 -14 -13 994.4 990.7
З 3
{10}
20 км {метель} 8/3 1000 м
[Sc Ac trans]
-8.0 -18.4 43 -13 -13 994.8 991.1
штиль 0 20 км 3/1 1000 м
[Sc Ac lent]
-13.4 -18.1 68 -13 -13 995.3 991.5 -6.5
ЮВ 1 20 км 5/3 1000 м
[Sc Ac trans]
-15.7 -18.9 76 -18 -18 994.9 991.1
З 2 20 км 5/3 1000 м
[Sc Ac trans]
-16.4 -19.5 77 -22 -22 994.9 991.1
СЗ 1 20 км 6/3 1000 м
[Sc Ac trans]
-15.7 -18.7 78 -18 -18 995.4 991.6
ЮВ 1 20 км 3/3 1000 м
[Sc]
-17.0 -19.7 79 -20 -20 996.2 992.3 -18.4 48
Ю 1 50 км 8/1 1000 м
[Sc Ac trans Ci fib]
-17.3 -20.1 79 -20 -19 998.0 994.1 -19.6
С 1 50 км 9/3 1000 м
[Sc Ac trans Ci fib]
-12.8 -16.8 72 -15 -15 997.8 994.0
В 1 20 км 9/4 1000 м
[Sc Ac trans]
-13.1 -16.9 73 -15 -15 999.6 995.8
В 1 20 км 9/4 1000 м
[Sc Ac trans]
-15.1 -18.1 78 -18 -18 1001.5 997.7 -12.1
Ю 1 20 км 9/4 1000 м
[Sc Ac trans]
-17.8 -20.1 82 -21 -21 1002.9 999.0
В 2 20 км 8/4 1000 м
[Sc Ac trans]
-20.3 -23.0 79 -26 -26 1004.1 1000.2
ЮВ 1 20 км 8/4 1000 м
[Sc Ac trans]
-23.3 -26.7 74 -27 -27 1005.6 1001.7
штиль 0 500 м переохл. туман ясно -23.7 -27.1 73 -24 -24 1007.1 1003.2 -24.3 48
штиль 0 20 км туман на расстоянии 8/3 1000 м
[Sc Ac trans Ci fib]
-22.1 -25.4 74 -22 -22 1008.0 1004.1 -25.1
штиль 0 50 км 6/3 1000 м
[Sc Ac trans Ci fib]
-18.3 -21.2 78 -18 -18 1007.9 1004.0
ЮВ 1 20 км 6/3 1000 м
[Sc Ac trans]
-20.8 -24.0 75 -24 -24 1008.8 1004.8
ЮВ 2 20 км туман на расстоянии 3/0
[Ac trans]
-22.7 -26.1 74 -29 -29 1009.3 1005.4 -17.8
Ю 1 20 км туман на расстоянии 3/0
[Ac trans]
-24.8 -28.4 72 -28 -28 1010.1 1006.1
штиль 0 10 км туман на расстоянии ясно -25.8 -29.5 71 -26 -26 1010.4 1006.4
ЮВ 1 10 км туман на расстоянии ясно -27.7 -31.6 69 -32 -32 опасность
обморожения
1010.9 1006.9
В 2 500 м переохл. туман ясно -27.0 -30.8 70 -34 -34 опасность
обморожения
1011.3 1007.2 -27.8 48
В 1 500 м переохл. туман 3/1 1000 м
[Sc Ac trans]
-26.8 -30.7 69 -31 -30 опасность
обморожения
1011.9 1007.8
В 1 50 км {туман} 3/1 1000 м
[Sc Ac trans]
-22.5 -25.9 74 -26 -25 1010.6 1006.6
В 2 20 км туман на расстоянии 3/1 1000 м
[Sc Ac trans]
-24.5 -28.1 72 -31 -31 опасность
обморожения
1010.7 1006.7
ЮЗ 1 20 км туман на расстоянии 3/0
[Ac trans]
-26.1 -29.9 70 -30 -30 1010.5 1006.5 -21.8
В 1 20 км туман на расстоянии 3/0
[Ac trans]
-27.6 -31.5 69 -31 -31 опасность
обморожения
1010.2 1006.2
штиль 0 20 км туман на расстоянии 3/0
[Ac trans]
-27.2 -31.1 69 -27 -27 1009.7 1005.7
В 1 500 м переохл. туман ясно -27.6 -31.5 69 -31 -31 опасность
обморожения
1009.4 1005.4
штиль 0 200 м переохл. туман ?/? -28.5 -32.6 68 -29 -29 1009.7 1005.6 -28.9 48
ЮВ 1 500 м переохл. туман 4/0
[Ci fib]
-25.9 -29.7 70 -30 -28 1009.5 1005.5
В 1 20 км туман на расстоянии 9/0
[Ci]
-19.0 -22.0 77 -22 -21 1007.6 1003.7
ЮВ 2 20 км {туман} 8/0
[Ac lent]
-21.2 -24.4 75 -27 -27 1007.3 1003.4
ЮВ 2 20 км туман на расстоянии 8/0
[Ac trans]
-21.7 -25.0 75 -28 -28 1007.2 1003.2 -19.0
В 2 20 км 9/3 1000 м
[Sc Ac trans]
-22.3 -25.6 74 -29 -29 1007.0 1003.0
штиль 0 20 км туман на расстоянии 9/3 1000 м
[Sc Ac trans]
-24.2 -27.8 72 -24 -24 1006.6 1002.6
штиль 0 200 м переохл. туман ?/? -26.1 -30.0 70 -26 -26 1006.5 1002.5
В 1 10 км туман на расстоянии 4/0
[Ac trans]
-28.6 -32.7 68 -33 -33 опасность
обморожения
1006.4 1002.3 -28.6 47
ЮВ 1 500 м переохл. туман 3/0
[Ci fib]
-26.7 -30.6 69 -30 -29 1006.8 1002.8
штиль 0 500 м переохл. туман 6/0
[Ci fib]
-24.0 -27.6 72 -24 -23 1005.3 1001.3
ЮВ 1 500 м переохл. туман 6/0
[Ac trans]
-22.2 -25.6 74 -25 -25 1004.7 1000.7
штиль 0 20 км туман на расстоянии 6/0
[Ac trans]
-25.0 -28.6 72 -25 -25 1004.9 1000.9 -22.1
штиль 0 500 м переохл. туман ?/? -26.5 -30.3 70 -27 -27 1005.0 1001.0
штиль 0 200 м переохл. туман ?/? -25.8 -29.6 70 -26 -26 1004.9 1000.9
штиль 0 500 м переохл. туман ?/? -27.1 -31.1 69 -27 -27 1005.0 1001.0
штиль 0 500 м переохл. туман 3/0
[Ci fib]
-27.8 -31.8 69 -28 -28 1006.0 1002.0 -28.2 47
штиль 0 500 м переохл. туман 3/0
[Ci fib]
-25.5 -29.3 70 -26 -24 1006.9 1002.8 -28.8
штиль 0 20 км туман на расстоянии 3/0
[Ci fib]
-21.7 -25.1 74 -22 -21 1006.2 1002.3
штиль 0 20 км туман на расстоянии 3/0
[Ci fib]
-23.7 -27.2 73 -24 -24 1007.2 1003.2
штиль 0 20 км туман на расстоянии 3/0
[Ac trans]
-27.1 -31.0 69 -27 -27 1008.9 1004.8 -19.4
штиль 0 500 м переохл. туман ?/? -27.8 -31.8 69 -28 -28 1010.4 1006.3
штиль 0 500 м переохл. туман ?/? -29.2 -33.3 68 -29 -29 1010.8 1006.7
штиль 0 500 м переохл. туман ?/? -30.5 -34.9 65 -31 -31 опасность
обморожения
1011.6 1007.5
штиль 0 200 м переохл. туман ?/? -31.2 -35.6 65 -31 -31 опасность
обморожения
1013.1 1009.0 -31.8 47
Местоположение метеостанции Ключи (Камчатский край, Россия): широта 56.32 долгота 160.80 высота над уровнем моря 29 м.
В архиве по умолчанию представлена погода в Ключах за последнюю неделю. Архивные данные за месяц целиком и за предыдущие месяцы, начиная с января 2011 года, Вы можете получить, выбрав интересующий диапазон дат из раскрывающегося списка и нажав кнопку "Найти!".
*Определитесь, кто Вы:
Внимание! Время в таблицах - всемирное. Для получения местного времени необходимо прибавить поправку, которая равна 12 ч.
Смотрите также архив погоды в соседних городах и на ближайших метеорологических станциях:
Партнеры нашего сайта:      
Пояснения к столбцам:
  • Ветер - указаны скорость ветра в м/с - средняя за 10 мин, порывы в срок и между сроками (в фигурных скобках) и направление, откуда дует ветер: С - северный,
  • СВ - северо-восточный, В - восточный, ЮВ - юго-восточный, Ю - южный, ЮЗ - юго-западный, З - западный, СЗ - северо-западный.
  • Видимость - горизонтальная дальность видимости в метрах или километрах. При видимости от 1 до 10 км при отсутствии осадков обычно наблюдается дымка, при ухудшении видимости до 1 км и менее - туман. В сухую погоду видимость может ухудшаться дымом, пылью или мглою.
  • Явления - указаны атмосферные явления, наблюдавшиеся в срок или в последний час перед сроком; фигурными скобками обозначены явления, наблюдавшиеся между сроками (за 1-3 часа до срока); квадратными скобками обозначены град или гололедные отложения с указанием их диаметра в мм.
  • Облачность - указаны через наклонную черту общая и нижняя облачность в баллах и высота нижней границы облаков в метрах; квадратными скобками обозначены формы облаков: Ci - перистые, Cs - перисто-слоистые, Cc - перисто-кучевые, Ac - высококучевые, As - высокослоистые, Sc - слоисто-кучевые, Ns - слоисто-дождевые, Cu - кучевые, Cb - кучево-дождевые. Подробнее классификацию облаков см. в Атласе облаков (PDF).
  • T - Температура воздуха - температура, измеренная на высоте 2 м над землей.
  • Td - Температура точки росы - температура, при понижении до которой содержащийся в воздухе водяной пар достигнет насыщения.
  • f - Относительная влажность воздуха - влажноcть воздуха, измеренная на высоте 2 м над землей.
  • Te - Эффективная температура - температура, которую ощущает одетый по сезону человек в тени. Характеристика душности погоды. При расчете учитывается влияние влажности воздуха и скорости ветра на теплоощущения человека.
  • Tes - Эффективная температура на солнце - температура, которую ощущает человек, с поправкой на солнечный нагрев. Характеристика знойности погоды. Зависит от высоты солнца над горизонтом, облачности и скорости ветра. Ночью, в пасмурную погоду, а также при ветре 12 м/с и более поправка равна нулю.
  • P - Атмосферное давление - приведенное к уровню моря атмосферное давление.
  • Po - Атмосферное давление - измеренное на уровне метеостанции атмосферное давление.
  • Tmin - Минимальная температура - минимум температуры воздуха на высоте 2 м над землей.
  • Tmax - Максимальная температура - максимум температуры воздуха на высоте 2 м над землей.
  • R - Количество осадков - Количество выпавших осадков за период времени, мм. При наведении курсора мыши на число - период времени, за который выпало указанное количество осадков.
  • R24 - Количество осадков - Количество выпавших осадков за 24 часа, мм.
  • S - Снежный покров - Высота снежного покрова, см. При наведении курсора мыши на число - состояние снежного покрова и степень покрытия местности в баллах.